Location: Maiden
(35.5760°N, 81.2120°W)
Time: 03:09:54
(UTC-04:00)

Cosmos 1900 - Pass Details

Date: 02 August 2020
Orbit: 682 x 740 km, 66.1° (Epoch: 11 August)

Event Time Altitude Azimuth Distance (km) Brightness Sun altitude
Exits shadow 22:37:31 - 213° (SSW) 2,533 7.1 -23.0°
Reaches altitude 10° 22:38:31 10° 214° (SW) 2,140 6.7 -23.1°
Maximum altitude 22:43:22 71° 299° (WNW) 743 4.5 -23.8°
Drops below altitude 10° 22:48:21 10° 23° (NNE) 2,190 7.1 -24.5°
Sets 22:50:44 0° 26° (NNE) 3,122 7.9 -24.8°
